Location: Newark
(49.3317°N, 2.4661°E)
Time: 14:19:23
(UTC+00:00)

N. Korean satellite - Visible Passes

Search period start: 18 November 2019 00:00
Search period end: 28 November 2019 00:00
Orbit: 456 x 506 km, 97.2° (Epoch: 17 November)

Date Brightness Start Highest point End Pass type
(mag) Time Alt. Az. Time Alt. Az. Time Alt. Az.
18 Nov 9.3 05:00:39 10° NE 05:03:37 22° E 05:06:33 10° SE visible
18 Nov 7.9 17:12:41 10° S 17:16:12 44° W 17:19:47 10° NNW visible
19 Nov 10.2 04:36:27 10° ENE 04:37:59 12° E 04:39:31 10° ESE visible
19 Nov 6.6 06:08:06 10° N 06:11:48 62° WNW 06:15:25 10° SSW visible
19 Nov 6.6 16:47:07 10° SSE 16:50:46 89° WSW 16:54:30 10° NNW visible
20 Nov 7.0 05:42:42 10° NNE 05:46:25 66° ESE 05:50:04 10° S visible
20 Nov 9.9 17:56:47 10° SW 17:59:05 16° W 18:01:25 10° NW visible
21 Nov 8.5 05:17:32 10° NNE 05:20:56 33° E 05:24:18 10° SSE visible
21 Nov 8.9 17:30:16 10° SSW 17:33:29 29° W 17:36:46 10° NNW visible
22 Nov 9.6 04:52:44 10° NE 04:55:22 18° E 04:57:58 10° SE visible
22 Nov 7.1 06:25:28 10° N 06:28:57 39° WNW 06:32:22 10° SW visible
22 Nov 7.4 17:04:23 10° S 17:07:59 56° W 17:11:40 10° NNW visible
23 Nov 6.5 05:59:54 10° N 06:03:37 77° WNW 06:07:15 10° SSW visible
23 Nov 6.6 16:38:55 10° SSE 16:42:35 74° ENE 16:46:19 10° N visible
23 Nov 10.3 18:15:50 10° W 18:16:29 10° W 18:17:07 10° WNW visible
24 Nov 7.5 05:34:33 10° NNE 05:38:13 53° E 05:41:46 10° S visible
24 Nov 9.6 17:48:06 10° SW 17:50:48 19° W 17:53:33 10° NW visible
25 Nov 8.9 05:09:29 10° NE 05:12:41 27° E 05:15:50 10° SSE visible
25 Nov 8.5 17:21:50 10° SSW 17:25:14 35° W 17:28:42 10° NNW visible
26 Nov 9.9 04:44:53 10° NE 04:47:04 15° E 04:49:14 10° SE visible
26 Nov 6.8 06:17:11 10° N 06:20:46 48° WNW 06:24:15 10° SSW visible
26 Nov 7.0 16:56:05 10° S 16:59:45 70° WSW 17:03:30 10° NNW visible
27 Nov 6.6 05:51:42 10° NNE 05:55:24 86° ESE 05:59:00 10° SSW visible
27 Nov 6.7 16:30:44 10° SSE 16:34:23 60° ENE 16:38:03 10° N visible
27 Nov 10.1 18:06:26 10° WSW 18:08:09 13° W 18:09:53 10° WNW visible
